Date String (YYYY-MM-DD hh:mm:ss) UTC,Instrument flags,Ambient pressure (hPa),Sample flow (lpm),Bypass flow (lpm),Sample temperature (°C),Ambient temperature (°C),ASC tube jacket temperature (°C),LED temperature (°C),Box temperature (°C),Sample RH (%),Span deviation,Mass concentration (μg/m³),Mass concentration (μg/m³),Mass concentration (μg/m³)
DateTimeUTC,F1_M11,P_M11,Q1_M11,Q2_M11,T1_M11,T2_M11,T3_M11,T4_M11,T5_M11,U1_M11,ZSPAN_M11,X0_M11,X2_M11,X1_M11
2021-10-27 10:00:00,,0820.8,4.99,0.00,24.3,23.1,00.0,33.6,25.8,10.1,0000.0,0005.00,0001.28,0000.92
2021-10-27 10:01:00,,0820.8,5.00,0.00,24.2,23.0,00.0,33.6,25.7,10.1,0000.0,0004.95,0001.27,0000.92
2021-10-27 10:02:00,,0820.7,5.00,0.00,24.2,22.9,00.0,33.6,25.8,10.1,0000.0,0005.02,0001.30,0000.93
2021-10-27 10:03:00,,0820.7,5.01,0.00,24.2,23.0,00.0,33.6,25.9,10.0,0000.0,0005.46,0001.32,0000.94
2021-10-27 10:04:00,,0820.7,5.00,0.00,24.2,23.0,00.0,33.5,25.8,10.0,0000.0,0005.74,0001.29,0000.93
2021-10-27 10:05:00,,0820.7,4.98,0.00,24.2,23.0,00.0,33.5,25.7,09.9,0000.0,0005.71,0001.29,0000.92
2021-10-27 10:06:00,,0820.7,5.00,0.00,24.1,23.0,00.0,33.5,25.7,10.0,0000.0,0005.70,0001.27,0000.92
2021-10-27 10:07:00,,0820.8,5.00,0.00,24.1,22.9,00.0,33.5,25.7,10.0,0000.0,0004.99,0001.26,0000.91
2021-10-27 10:08:00,,0820.7,5.01,0.00,24.1,22.9,00.0,33.4,25.6,09.9,0000.0,0004.92,0001.24,0000.91
2021-10-27 10:09:00,,0820.6,5.00,0.00,24.1,22.9,00.0,33.4,25.7,09.9,0000.0,0005.03,0001.25,0000.90
2021-10-27 10:10:00,,0820.7,4.99,0.00,24.0,22.9,00.0,33.4,25.6,09.9,0000.0,0004.08,0001.28,0000.89
2021-10-27 10:11:00,,0820.6,5.00,0.00,24.0,22.9,00.0,33.4,25.6,10.0,0000.0,0003.89,0001.31,0000.89
2021-10-27 10:12:00,,0820.6,5.00,0.00,24.0,22.9,00.0,33.3,25.6,10.0,0000.0,0004.21,0001.32,0000.88
2021-10-27 10:13:00,,0820.6,4.99,0.00,24.0,22.8,00.0,33.3,25.6,10.1,0000.0,0004.44,0001.32,0000.87
2021-10-27 10:14:00,,0820.7,5.00,0.00,23.9,22.7,00.0,33.3,25.5,10.2,0000.0,0004.19,0001.31,0000.87
2021-10-27 10:15:00,,0820.8,5.01,0.00,23.9,22.7,00.0,33.3,25.5,10.2,0000.0,0004.41,0001.30,0000.87
2021-10-27 10:16:00,,0820.8,5.00,0.00,23.9,22.7,00.0,33.2,25.4,10.2,0000.0,0004.38,0001.30,0000.88
2021-10-27 10:17:00,,0820.7,4.99,0.00,23.9,22.6,00.0,33.2,25.4,10.2,0000.0,0004.32,0001.28,0000.88
2021-10-27 10:18:00,,0820.7,5.00,0.00,23.8,22.6,00.0,33.2,25.4,10.1,0000.0,0003.63,0001.25,0000.87
2021-10-27 10:19:00,,0820.7,5.01,0.00,23.8,22.7,00.0,33.2,25.5,10.1,0000.0,0005.24,0001.31,0000.88
2021-10-27 10:20:00,,0820.9,4.99,0.00,23.8,22.6,00.0,33.1,25.5,10.0,0000.0,0006.16,0001.33,0000.89
2021-10-27 10:21:00,,0820.8,5.00,0.00,23.8,22.6,00.0,33.1,25.4,10.0,0000.0,0005.94,0001.28,0000.89
2021-10-27 10:22:00,,0820.8,4.99,0.00,23.8,22.6,00.0,33.1,25.4,10.0,0000.0,0005.68,0001.21,0000.89
2021-10-27 10:23:00,,0820.9,5.01,0.00,23.8,22.6,00.0,33.1,25.4,09.9,0000.0,0005.35,0001.19,0000.89
2021-10-27 10:24:00,,0820.9,4.98,0.00,23.8,22.5,00.0,33.1,25.3,10.0,0000.0,0004.99,0001.16,0000.89
2021-10-27 10:25:00,,0820.9,5.00,0.00,23.8,22.5,00.0,33.1,25.3,10.0,0000.0,0004.96,0001.16,0000.89
2021-10-27 10:26:00,,0820.9,5.00,0.00,23.7,22.5,00.0,33.0,25.3,10.0,0000.0,0004.29,0001.17,0000.89
2021-10-27 10:27:00,,0820.8,5.01,0.00,23.7,22.5,00.0,33.0,25.3,09.9,0000.0,0004.30,0001.17,0000.88
2021-10-27 10:28:00,,0820.8,4.99,0.00,23.7,22.4,00.0,33.0,25.3,09.9,0000.0,0004.44,0001.21,0000.88
2021-10-27 10:29:00,,0820.8,5.00,0.00,23.7,22.5,00.0,33.0,25.4,09.9,0000.0,0004.44,0001.22,0000.87
2021-10-27 10:30:00,,0820.8,5.00,0.00,23.7,22.5,00.0,33.0,25.4,09.9,0000.0,0002.94,0001.17,0000.85
2021-10-27 10:31:00,,0820.8,5.00,0.00,23.7,22.5,00.0,33.0,25.4,09.9,0000.0,0003.62,0001.16,0000.83
2021-10-27 10:32:00,,0820.7,4.99,0.00,23.7,22.5,00.0,32.9,25.4,09.9,0000.0,0004.49,0001.20,0000.83
2021-10-27 10:33:00,,0820.9,5.01,0.00,23.6,22.5,00.0,32.9,25.3,09.8,0000.0,0004.86,0001.28,0000.83
2021-10-27 10:34:00,,0820.9,5.00,0.00,23.6,22.5,00.0,32.9,25.3,09.9,0000.0,0005.31,0001.33,0000.82
2021-10-27 10:35:00,,0820.9,4.99,0.00,23.6,22.5,00.0,32.9,25.3,10.0,0000.0,0005.57,0001.38,0000.82
2021-10-27 10:36:00,,0820.9,5.00,0.00,23.5,22.4,00.0,32.8,25.2,10.0,0000.0,0005.60,0001.37,0000.81
2021-10-27 10:37:00,,0821.0,4.99,0.00,23.5,22.4,00.0,32.8,25.1,10.0,0000.0,0005.52,0001.35,0000.80
2021-10-27 10:38:00,,0820.9,5.00,0.00,23.5,22.3,00.0,32.8,25.1,10.1,0000.0,0005.63,0001.33,0000.80
2021-10-27 10:39:00,,0821.0,5.00,0.00,23.5,22.3,00.0,32.8,25.1,10.1,0000.0,0006.08,0001.29,0000.79
2021-10-27 10:40:00,,0821.1,5.00,0.00,23.5,22.3,00.0,32.8,25.1,10.1,0000.0,0006.04,0001.28,0000.79
2021-10-27 10:41:00,,0821.0,5.00,0.00,23.5,22.3,00.0,32.8,25.1,10.1,0000.0,0005.95,0001.25,0000.79
2021-10-27 10:42:00,,0821.0,4.99,0.00,23.5,22.2,00.0,32.7,25.0,10.1,0000.0,0004.35,0001.22,0000.79
2021-10-27 10:43:00,,0821.1,5.01,0.00,23.5,22.2,00.0,32.7,25.0,10.1,0000.0,0004.42,0001.22,0000.78
2021-10-27 10:44:00,,0821.1,5.00,0.00,23.5,22.2,00.0,32.7,25.0,10.0,0000.0,0004.64,0001.14,0000.77
2021-10-27 10:45:00,,0821.1,5.01,0.00,23.5,22.2,00.0,32.7,25.1,10.0,0000.0,0004.52,0001.11,0000.77
2021-10-27 10:46:00,,0821.1,4.98,0.00,23.4,22.2,00.0,32.7,25.0,10.1,0000.0,0004.37,0001.11,0000.77
2021-10-27 10:47:00,,0821.2,5.00,0.00,23.4,22.2,00.0,32.7,25.1,09.9,0000.0,0004.31,0001.09,0000.76
2021-10-27 10:48:00,,0821.3,5.02,0.00,23.4,22.2,00.0,32.7,25.1,10.0,0000.0,0004.62,0001.10,0000.76
2021-10-27 10:49:00,,0821.4,5.00,0.00,23.4,22.2,00.0,32.7,25.1,10.0,0000.0,0005.04,0001.11,0000.75
2021-10-27 10:50:00,,0821.3,5.00,0.00,23.4,22.2,00.0,32.7,25.1,10.1,0000.0,0004.66,0001.12,0000.74
2021-10-27 10:51:00,,0821.3,4.99,0.00,23.5,22.3,00.0,32.7,25.1,09.9,0000.0,0004.68,0001.11,0000.74
2021-10-27 10:52:00,,0821.4,5.00,0.00,23.5,22.3,00.0,32.7,25.1,09.9,0000.0,0004.66,0001.10,0000.75
2021-10-27 10:53:00,,0821.3,5.01,0.00,23.5,22.4,00.0,32.7,25.1,09.9,0000.0,0004.68,0001.12,0000.74
2021-10-27 10:54:00,,0821.3,5.00,0.00,23.5,22.5,00.0,32.7,25.2,10.1,0000.0,0004.82,0001.10,0000.74
2021-10-27 10:55:00,,0821.4,5.00,0.00,23.5,22.5,00.0,32.7,25.3,10.1,0000.0,0004.91,0001.14,0000.74
2021-10-27 10:56:00,,0821.4,5.01,0.00,23.5,22.6,00.0,32.7,25.3,10.1,0000.0,0004.67,0001.14,0000.75
2021-10-27 10:57:00,,0821.4,4.99,0.00,23.5,22.6,00.0,32.7,25.3,10.2,0000.0,0004.51,0001.07,0000.74
2021-10-27 10:58:00,,0821.2,5.02,0.00,23.6,22.7,00.0,32.7,25.4,10.1,0000.0,0004.46,0001.05,0000.74
2021-10-27 10:59:00,,0821.3,4.99,0.00,23.6,22.7,00.0,32.7,25.4,10.0,0000.0,0004.18,0001.02,0000.73
